Year,Month,Day,Hour,Minute,Value (Times are PST for temperature in C)
2016,08,18,00,00,16.80
2016,08,18,00,01,16.70
2016,08,18,00,02,16.70
2016,08,18,00,03,16.70
2016,08,18,00,04,16.70
2016,08,18,00,05,16.70
2016,08,18,00,06,16.70
2016,08,18,00,07,16.60
2016,08,18,00,08,16.60
2016,08,18,00,09,16.60
2016,08,18,00,10,16.60
2016,08,18,00,11,16.60
2016,08,18,00,12,16.50
2016,08,18,00,13,16.50
2016,08,18,00,14,16.50
2016,08,18,00,15,16.40
2016,08,18,00,16,16.40
2016,08,18,00,17,16.40
2016,08,18,00,18,16.30
2016,08,18,00,19,16.30
2016,08,18,00,20,16.30
2016,08,18,00,21,16.20
2016,08,18,00,22,16.20
2016,08,18,00,23,16.10
2016,08,18,00,24,16.10
2016,08,18,00,25,16.00
2016,08,18,00,26,16.00
2016,08,18,00,27,15.90
2016,08,18,00,28,15.80
2016,08,18,00,29,15.80
2016,08,18,00,30,15.70
2016,08,18,00,31,15.60
2016,08,18,00,32,15.60
2016,08,18,00,33,15.50
2016,08,18,00,34,15.40
2016,08,18,00,35,15.40
2016,08,18,00,36,15.30
2016,08,18,00,37,15.30
2016,08,18,00,38,15.20
2016,08,18,00,39,15.20
2016,08,18,00,40,15.10
2016,08,18,00,41,15.10
2016,08,18,00,42,15.00
2016,08,18,00,43,15.00
2016,08,18,00,44,14.90
2016,08,18,00,45,14.90
2016,08,18,00,46,14.90
2016,08,18,00,47,14.80
2016,08,18,00,48,14.80
2016,08,18,00,49,14.80
2016,08,18,00,50,14.70
2016,08,18,00,51,14.70
2016,08,18,00,52,14.70
2016,08,18,00,53,14.70
2016,08,18,00,54,14.60
2016,08,18,00,55,14.60
2016,08,18,00,56,14.60
2016,08,18,00,57,14.50
2016,08,18,00,58,14.50
2016,08,18,00,59,14.50
2016,08,18,01,00,14.40
2016,08,18,01,01,14.40
2016,08,18,01,02,14.40
2016,08,18,01,03,14.40
2016,08,18,01,04,14.40
2016,08,18,01,05,14.40
2016,08,18,01,06,14.40
2016,08,18,01,07,14.40
2016,08,18,01,08,14.40
2016,08,18,01,09,14.40
2016,08,18,01,10,14.40
2016,08,18,01,11,14.40
2016,08,18,01,12,14.30
2016,08,18,01,13,14.30
2016,08,18,01,14,14.30
2016,08,18,01,15,14.40
2016,08,18,01,16,14.40
2016,08,18,01,17,14.40
2016,08,18,01,18,14.40
2016,08,18,01,19,14.40
2016,08,18,01,20,14.40
2016,08,18,01,21,14.40
2016,08,18,01,22,14.40
2016,08,18,01,23,14.40
2016,08,18,01,24,14.40
2016,08,18,01,25,14.40
2016,08,18,01,26,14.40
2016,08,18,01,27,14.40
2016,08,18,01,28,14.40
2016,08,18,01,29,14.40
2016,08,18,01,30,14.40
2016,08,18,01,31,14.40
2016,08,18,01,32,14.40
2016,08,18,01,33,14.40
2016,08,18,01,34,14.40
2016,08,18,01,35,14.40
2016,08,18,01,36,14.40
2016,08,18,01,37,14.40
2016,08,18,01,38,14.40
2016,08,18,01,39,14.40
2016,08,18,01,40,14.30
2016,08,18,01,41,14.30
2016,08,18,01,42,14.30
2016,08,18,01,43,14.30
2016,08,18,01,44,14.30
2016,08,18,01,45,14.30
2016,08,18,01,46,14.30
2016,08,18,01,47,14.30
2016,08,18,01,48,14.30
2016,08,18,01,49,14.30
2016,08,18,01,50,14.30
2016,08,18,01,51,14.30
2016,08,18,01,52,14.20
2016,08,18,01,53,14.20
2016,08,18,01,54,14.20
2016,08,18,01,55,14.20
2016,08,18,01,56,14.20
2016,08,18,01,57,14.20
2016,08,18,01,58,14.20
2016,08,18,01,59,14.20
2016,08,18,02,00,14.20
2016,08,18,02,01,14.20
2016,08,18,02,02,14.20
2016,08,18,02,03,14.20
2016,08,18,02,04,14.10
2016,08,18,02,05,14.10
2016,08,18,02,06,14.10
2016,08,18,02,07,14.10
2016,08,18,02,08,14.10
2016,08,18,02,09,14.10
2016,08,18,02,10,14.10
2016,08,18,02,11,14.10
2016,08,18,02,12,14.10
2016,08,18,02,13,14.10
2016,08,18,02,14,14.10
2016,08,18,02,15,14.10
2016,08,18,02,16,14.10
2016,08,18,02,17,14.10
2016,08,18,02,18,14.10
2016,08,18,02,19,14.10
2016,08,18,02,20,14.10
2016,08,18,02,21,14.10
2016,08,18,02,22,14.10
2016,08,18,02,23,14.10
2016,08,18,02,24,14.10
2016,08,18,02,25,14.10
2016,08,18,02,26,14.10
2016,08,18,02,27,14.10
2016,08,18,02,28,14.10
2016,08,18,02,29,14.10
2016,08,18,02,30,14.10
2016,08,18,02,31,14.10
2016,08,18,02,32,14.10
2016,08,18,02,33,14.10
2016,08,18,02,34,14.10
2016,08,18,02,35,14.10
2016,08,18,02,36,14.10
2016,08,18,02,37,14.10
2016,08,18,02,38,14.10
2016,08,18,02,39,14.20
2016,08,18,02,40,14.20
2016,08,18,02,41,14.20
2016,08,18,02,42,14.20
2016,08,18,02,43,14.20
2016,08,18,02,44,14.30
2016,08,18,02,45,14.30
2016,08,18,02,46,14.30
2016,08,18,02,47,14.30
2016,08,18,02,48,14.30
2016,08,18,02,49,14.30
2016,08,18,02,50,14.30
2016,08,18,02,51,14.30
2016,08,18,02,52,14.30
2016,08,18,02,53,14.30
2016,08,18,02,54,14.30
2016,08,18,02,55,14.30
2016,08,18,02,56,14.30
2016,08,18,02,57,14.30
2016,08,18,02,58,14.30
2016,08,18,02,59,14.30
2016,08,18,03,00,14.30
2016,08,18,03,01,14.30
2016,08,18,03,02,14.30
2016,08,18,03,03,14.30
2016,08,18,03,04,14.30
2016,08,18,03,05,14.30
2016,08,18,03,06,14.30
2016,08,18,03,07,14.30
2016,08,18,03,08,14.30
2016,08,18,03,09,14.20
2016,08,18,03,10,14.20
2016,08,18,03,11,14.20
2016,08,18,03,12,14.20
2016,08,18,03,13,14.20
2016,08,18,03,14,14.20
2016,08,18,03,15,14.20
2016,08,18,03,16,14.20
2016,08,18,03,17,14.20
2016,08,18,03,18,14.20
2016,08,18,03,19,14.20
2016,08,18,03,20,14.20
2016,08,18,03,21,14.30
2016,08,18,03,22,14.30
2016,08,18,03,23,14.30
2016,08,18,03,24,14.30
2016,08,18,03,25,14.30
2016,08,18,03,26,14.30
2016,08,18,03,27,14.30
2016,08,18,03,28,14.30
2016,08,18,03,29,14.30
2016,08,18,03,30,14.30
2016,08,18,03,31,14.30
2016,08,18,03,32,14.30
2016,08,18,03,33,14.30
2016,08,18,03,34,14.30
2016,08,18,03,35,14.30
2016,08,18,03,36,14.30
2016,08,18,03,37,14.30
2016,08,18,03,38,14.30
2016,08,18,03,39,14.30
2016,08,18,03,40,14.30
2016,08,18,03,41,14.30
2016,08,18,03,42,14.30
2016,08,18,03,43,14.30
2016,08,18,03,44,14.30
2016,08,18,03,45,14.30
2016,08,18,03,46,14.40
2016,08,18,03,47,14.40
2016,08,18,03,48,14.40
2016,08,18,03,49,14.40
2016,08,18,03,50,14.40
2016,08,18,03,51,14.40
2016,08,18,03,52,14.40
2016,08,18,03,53,14.40
2016,08,18,03,54,14.40
2016,08,18,03,55,14.50
2016,08,18,03,56,14.60
2016,08,18,03,57,14.70
2016,08,18,03,58,14.80
2016,08,18,03,59,15.00
2016,08,18,04,00,15.20
2016,08,18,04,01,15.30
2016,08,18,04,02,15.40
2016,08,18,04,03,15.40
2016,08,18,04,04,15.50
2016,08,18,04,05,15.60
2016,08,18,04,06,15.60
2016,08,18,04,07,15.60
2016,08,18,04,08,15.60
2016,08,18,04,09,15.70
2016,08,18,04,10,15.70
2016,08,18,04,11,15.70
2016,08,18,04,12,15.60
2016,08,18,04,13,15.60
2016,08,18,04,14,15.60
2016,08,18,04,15,15.60
2016,08,18,04,16,15.50
2016,08,18,04,17,15.50
2016,08,18,04,18,15.40
2016,08,18,04,19,15.40
2016,08,18,04,20,15.30
2016,08,18,04,21,15.30
2016,08,18,04,22,15.30
2016,08,18,04,23,15.30
2016,08,18,04,24,15.30
2016,08,18,04,25,15.40
2016,08,18,04,26,15.50
2016,08,18,04,27,15.70
2016,08,18,04,28,15.80
2016,08,18,04,29,16.00
2016,08,18,04,30,16.10
2016,08,18,04,31,16.30
2016,08,18,04,32,16.50
2016,08,18,04,33,16.60
2016,08,18,04,34,16.70
2016,08,18,04,35,16.80
2016,08,18,04,36,16.90
2016,08,18,04,37,16.90
2016,08,18,04,38,17.00
2016,08,18,04,39,17.10
2016,08,18,04,40,17.10
2016,08,18,04,41,17.20
2016,08,18,04,42,17.20
2016,08,18,04,43,17.20
2016,08,18,04,44,17.20
2016,08,18,04,45,17.20
2016,08,18,04,46,17.20
2016,08,18,04,47,17.20
2016,08,18,04,48,17.20
2016,08,18,04,49,17.20
2016,08,18,04,50,17.20
2016,08,18,04,51,17.20
2016,08,18,04,52,17.20
2016,08,18,04,53,17.20
2016,08,18,04,54,17.20
2016,08,18,04,55,17.20
2016,08,18,04,56,17.10
2016,08,18,04,57,17.10
2016,08,18,04,58,17.10
2016,08,18,04,59,17.10
2016,08,18,05,00,17.00
2016,08,18,05,01,17.00
2016,08,18,05,02,17.00
2016,08,18,05,03,17.00
2016,08,18,05,04,17.00
2016,08,18,05,05,16.90
2016,08,18,05,06,16.90
2016,08,18,05,07,16.90
2016,08,18,05,08,16.90
2016,08,18,05,09,16.90
2016,08,18,05,10,16.80
2016,08,18,05,11,16.80
2016,08,18,05,12,16.70
2016,08,18,05,13,16.60
2016,08,18,05,14,16.60
2016,08,18,05,15,16.50
2016,08,18,05,16,16.40
2016,08,18,05,17,16.30
2016,08,18,05,18,16.30
2016,08,18,05,19,16.20
2016,08,18,05,20,16.10
2016,08,18,05,21,16.10
2016,08,18,05,22,16.00
2016,08,18,05,23,16.00
2016,08,18,05,24,15.90
2016,08,18,05,25,15.90
2016,08,18,05,26,15.80
2016,08,18,05,27,15.70
2016,08,18,05,28,15.60
2016,08,18,05,29,15.60
2016,08,18,05,30,15.50
2016,08,18,05,31,15.50
2016,08,18,05,32,15.40
2016,08,18,05,33,15.30
2016,08,18,05,34,15.30
2016,08,18,05,35,15.20
2016,08,18,05,36,15.20
2016,08,18,05,37,15.10
2016,08,18,05,38,15.10
2016,08,18,05,39,15.10
2016,08,18,05,40,15.00
2016,08,18,05,41,15.00
2016,08,18,05,42,15.00
2016,08,18,05,43,14.90
2016,08,18,05,44,14.90
2016,08,18,05,45,14.90
2016,08,18,05,46,14.90
2016,08,18,05,47,14.80
2016,08,18,05,48,14.80
2016,08,18,05,49,14.80
2016,08,18,05,50,14.80
2016,08,18,05,51,14.70
2016,08,18,05,52,14.70
2016,08,18,05,53,14.70
2016,08,18,05,54,14.70
2016,08,18,05,55,14.70
2016,08,18,05,56,14.60
2016,08,18,05,57,14.60
2016,08,18,05,58,14.60
2016,08,18,05,59,14.60
2016,08,18,06,00,14.60
2016,08,18,06,01,14.50
2016,08,18,06,02,14.50
2016,08,18,06,03,14.50
2016,08,18,06,04,14.50
2016,08,18,06,05,14.50
2016,08,18,06,06,14.50
2016,08,18,06,07,14.60
2016,08,18,06,08,14.60
2016,08,18,06,09,14.60
2016,08,18,06,10,14.60
2016,08,18,06,11,14.70
2016,08,18,06,12,14.70
2016,08,18,06,13,14.70
2016,08,18,06,14,14.70
2016,08,18,06,15,14.70
2016,08,18,06,16,14.80
2016,08,18,06,17,14.80
2016,08,18,06,18,14.80
2016,08,18,06,19,14.80
2016,08,18,06,20,14.80
2016,08,18,06,21,14.80
2016,08,18,06,22,14.90
2016,08,18,06,23,14.90
2016,08,18,06,24,14.90
2016,08,18,06,25,14.90
2016,08,18,06,26,15.00
2016,08,18,06,27,15.00
2016,08,18,06,28,15.00
2016,08,18,06,29,15.00
2016,08,18,06,30,15.10
2016,08,18,06,31,15.10
2016,08,18,06,32,15.10
2016,08,18,06,33,15.10
2016,08,18,06,34,15.10
2016,08,18,06,35,15.10
2016,08,18,06,36,15.20
2016,08,18,06,37,15.20
2016,08,18,06,38,15.20
2016,08,18,06,39,15.20
2016,08,18,06,40,15.20
2016,08,18,06,41,15.20
2016,08,18,06,42,15.20
2016,08,18,06,43,15.20
2016,08,18,06,44,15.20
2016,08,18,06,45,15.30
2016,08,18,06,46,15.30
2016,08,18,06,47,15.30
2016,08,18,06,48,15.30
2016,08,18,06,49,15.30
2016,08,18,06,50,15.30
2016,08,18,06,51,15.30
2016,08,18,06,52,15.30
2016,08,18,06,53,15.30
2016,08,18,06,54,15.40
2016,08,18,06,55,15.40
2016,08,18,06,56,15.40
2016,08,18,06,57,15.40
2016,08,18,06,58,15.50
2016,08,18,06,59,15.50
2016,08,18,07,00,15.50
2016,08,18,07,01,15.60
2016,08,18,07,02,15.60
2016,08,18,07,03,15.60
2016,08,18,07,04,15.60
2016,08,18,07,05,15.70
2016,08,18,07,06,15.70
2016,08,18,07,07,15.70
2016,08,18,07,08,15.80
2016,08,18,07,09,15.80
2016,08,18,07,10,15.90
2016,08,18,07,11,15.90
2016,08,18,07,12,16.00
2016,08,18,07,13,16.10
2016,08,18,07,14,16.20
2016,08,18,07,15,16.30
2016,08,18,07,16,16.40
2016,08,18,07,17,16.50
2016,08,18,07,18,16.60
2016,08,18,07,19,16.70
2016,08,18,07,20,16.80
2016,08,18,07,21,16.90
2016,08,18,07,22,17.00
2016,08,18,07,23,17.10
2016,08,18,07,24,17.20
2016,08,18,07,25,17.30
2016,08,18,07,26,17.30
2016,08,18,07,27,17.40
2016,08,18,07,28,17.50
2016,08,18,07,29,17.60
2016,08,18,07,30,17.70
2016,08,18,07,31,17.80
2016,08,18,07,32,17.80
2016,08,18,07,33,17.90
2016,08,18,07,34,17.90
2016,08,18,07,35,18.00
2016,08,18,07,36,18.10
2016,08,18,07,37,18.10
2016,08,18,07,38,18.20
2016,08,18,07,39,18.20
2016,08,18,07,40,18.30
2016,08,18,07,41,18.30
2016,08,18,07,42,18.40
2016,08,18,07,43,18.40
2016,08,18,07,44,18.50
2016,08,18,07,45,18.60
2016,08,18,07,46,18.60
2016,08,18,07,47,18.70
2016,08,18,07,48,18.70
2016,08,18,07,49,18.80
2016,08,18,07,50,18.80
2016,08,18,07,51,18.80
2016,08,18,07,52,18.90
2016,08,18,07,53,18.90
2016,08,18,07,54,19.00
2016,08,18,07,55,19.00
2016,08,18,07,56,19.10
2016,08,18,07,57,19.10
2016,08,18,07,58,19.10
2016,08,18,07,59,19.20
2016,08,18,08,00,19.20
2016,08,18,08,01,19.20
2016,08,18,08,02,19.20
2016,08,18,08,03,19.20
2016,08,18,08,04,19.20
2016,08,18,08,05,19.30
2016,08,18,08,06,19.30
2016,08,18,08,07,19.30
2016,08,18,08,08,19.30
2016,08,18,08,09,19.40
2016,08,18,08,10,19.40
2016,08,18,08,11,19.40
2016,08,18,08,12,19.50
2016,08,18,08,13,19.50
2016,08,18,08,14,19.60
2016,08,18,08,15,19.60
2016,08,18,08,16,19.70
2016,08,18,08,17,19.70
2016,08,18,08,18,19.70
2016,08,18,08,19,19.70
2016,08,18,08,20,19.70
2016,08,18,08,21,19.70
2016,08,18,08,22,19.70
2016,08,18,08,23,19.60
2016,08,18,08,24,19.60
2016,08,18,08,25,19.70
2016,08,18,08,26,19.70
2016,08,18,08,27,19.70
2016,08,18,08,28,19.80
2016,08,18,08,29,19.80
2016,08,18,08,30,19.90
2016,08,18,08,31,20.00
2016,08,18,08,32,20.10
2016,08,18,08,33,20.10
2016,08,18,08,34,20.20
2016,08,18,08,35,20.20
2016,08,18,08,36,20.30
2016,08,18,08,37,20.40
2016,08,18,08,38,20.40
2016,08,18,08,39,20.50
2016,08,18,08,40,20.60
2016,08,18,08,41,20.60
2016,08,18,08,42,20.70
2016,08,18,08,43,20.70
2016,08,18,08,44,20.80
2016,08,18,08,45,20.80
2016,08,18,08,46,20.90
2016,08,18,08,47,20.90
2016,08,18,08,48,21.00
2016,08,18,08,49,21.10
2016,08,18,08,50,21.20
2016,08,18,08,51,21.20
2016,08,18,08,52,21.30
2016,08,18,08,53,21.30
2016,08,18,08,54,21.40
2016,08,18,08,55,21.40
2016,08,18,08,56,21.50
2016,08,18,08,57,21.50
2016,08,18,08,58,21.60
2016,08,18,08,59,21.60
2016,08,18,09,00,21.70
2016,08,18,09,01,21.70
2016,08,18,09,02,21.80
2016,08,18,09,03,21.80
2016,08,18,09,04,21.90
2016,08,18,09,05,22.00
2016,08,18,09,06,22.00
2016,08,18,09,07,22.10
2016,08,18,09,08,22.20
2016,08,18,09,09,22.20
2016,08,18,09,10,22.30
2016,08,18,09,11,22.30
2016,08,18,09,12,22.40
2016,08,18,09,13,22.40
2016,08,18,09,14,22.40
2016,08,18,09,15,22.40
2016,08,18,09,16,22.50
2016,08,18,09,17,22.50
2016,08,18,09,18,22.50
2016,08,18,09,19,22.60
2016,08,18,09,20,22.60
2016,08,18,09,21,22.70
2016,08,18,09,22,22.70
2016,08,18,09,23,22.80
2016,08,18,09,24,22.80
2016,08,18,09,25,22.80
2016,08,18,09,26,22.80
2016,08,18,09,27,22.90
2016,08,18,09,28,22.90
2016,08,18,09,29,23.00
2016,08,18,09,30,23.00
2016,08,18,09,31,23.10
2016,08,18,09,32,23.20
2016,08,18,09,33,23.20
2016,08,18,09,34,23.30
2016,08,18,09,35,23.30
2016,08,18,09,36,23.40
2016,08,18,09,37,23.50
2016,08,18,09,38,23.60
2016,08,18,09,39,23.60
2016,08,18,09,40,23.70
2016,08,18,09,41,23.80
2016,08,18,09,42,23.90
2016,08,18,09,43,24.00
2016,08,18,09,44,24.10
2016,08,18,09,45,24.10
2016,08,18,09,46,24.20
2016,08,18,09,47,24.30
2016,08,18,09,48,24.30
2016,08,18,09,49,24.40
2016,08,18,09,50,24.40
2016,08,18,09,51,24.50
2016,08,18,09,52,24.50
2016,08,18,09,53,24.60
2016,08,18,09,54,24.60
2016,08,18,09,55,24.70
2016,08,18,09,56,24.70
2016,08,18,09,57,24.70
2016,08,18,09,58,24.80
2016,08,18,09,59,24.80
2016,08,18,10,00,24.80
2016,08,18,10,01,24.80
2016,08,18,10,02,24.80
2016,08,18,10,03,24.80
2016,08,18,10,04,24.80
2016,08,18,10,05,24.70
2016,08,18,10,06,24.80
2016,08,18,10,07,24.80
2016,08,18,10,08,24.90
2016,08,18,10,09,25.00
2016,08,18,10,10,25.10
2016,08,18,10,11,25.20
2016,08,18,10,12,25.20
2016,08,18,10,13,25.30
2016,08,18,10,14,25.30
2016,08,18,10,15,25.30
2016,08,18,10,16,25.40
2016,08,18,10,17,25.40
2016,08,18,10,18,25.50
2016,08,18,10,19,25.50
2016,08,18,10,20,25.60
2016,08,18,10,21,25.60
2016,08,18,10,22,25.60
2016,08,18,10,23,25.60
2016,08,18,10,24,25.60
2016,08,18,10,25,25.60
2016,08,18,10,26,25.60
2016,08,18,10,27,25.60
2016,08,18,10,28,25.60
2016,08,18,10,29,25.60
2016,08,18,10,30,25.60
2016,08,18,10,31,25.70
2016,08,18,10,32,25.70
2016,08,18,10,33,25.80
2016,08,18,10,34,25.80
2016,08,18,10,35,25.90
2016,08,18,10,36,25.90
2016,08,18,10,37,25.90
2016,08,18,10,38,25.90
2016,08,18,10,39,25.90
2016,08,18,10,40,25.90
2016,08,18,10,41,25.90
2016,08,18,10,42,26.00
2016,08,18,10,43,26.10
2016,08,18,10,44,26.10
2016,08,18,10,45,26.20
2016,08,18,10,46,26.20
2016,08,18,10,47,26.30
2016,08,18,10,48,26.30
2016,08,18,10,49,26.40
2016,08,18,10,50,26.50
2016,08,18,10,51,26.50
2016,08,18,10,52,26.50
2016,08,18,10,53,26.60
2016,08,18,10,54,26.60
2016,08,18,10,55,26.70
2016,08,18,10,56,26.70
2016,08,18,10,57,26.80
2016,08,18,10,58,26.80
2016,08,18,10,59,26.80
2016,08,18,11,00,26.80
2016,08,18,11,01,26.80
2016,08,18,11,02,26.80
2016,08,18,11,03,26.90
2016,08,18,11,04,26.90
2016,08,18,11,05,26.90
2016,08,18,11,06,26.90
2016,08,18,11,07,26.90
2016,08,18,11,08,26.90
2016,08,18,11,09,26.90
2016,08,18,11,10,26.90
2016,08,18,11,11,26.90
2016,08,18,11,12,26.90
2016,08,18,11,13,26.90
2016,08,18,11,14,26.90
2016,08,18,11,15,27.00
2016,08,18,11,16,27.00
2016,08,18,11,17,27.10
2016,08,18,11,18,27.10
2016,08,18,11,19,27.20
2016,08,18,11,20,27.30
2016,08,18,11,21,27.30
2016,08,18,11,22,27.30
2016,08,18,11,23,27.30
2016,08,18,11,24,27.30
2016,08,18,11,25,27.30
2016,08,18,11,26,27.20
2016,08,18,11,27,27.10
2016,08,18,11,28,27.10
2016,08,18,11,29,27.10
2016,08,18,11,30,27.10
2016,08,18,11,31,27.20
2016,08,18,11,32,27.20
2016,08,18,11,33,27.20
2016,08,18,11,34,27.10
2016,08,18,11,35,27.10
2016,08,18,11,36,27.10
2016,08,18,11,37,27.20
2016,08,18,11,38,27.20
2016,08,18,11,39,27.20
2016,08,18,11,40,27.30
2016,08,18,11,41,27.30
2016,08,18,11,42,27.30
2016,08,18,11,43,27.20
2016,08,18,11,44,27.10
2016,08,18,11,45,27.10
2016,08,18,11,46,27.00
2016,08,18,11,47,27.00
2016,08,18,11,48,26.90
2016,08,18,11,49,26.80
2016,08,18,11,50,26.80
2016,08,18,11,51,26.80
2016,08,18,11,52,26.80
2016,08,18,11,53,26.80
2016,08,18,11,54,26.80
2016,08,18,11,55,26.80
2016,08,18,11,56,26.70
2016,08,18,11,57,26.70
2016,08,18,11,58,26.60
2016,08,18,11,59,26.60
2016,08,18,12,00,26.60
2016,08,18,12,01,26.60
2016,08,18,12,02,26.60
2016,08,18,12,03,26.60
2016,08,18,12,04,26.70
2016,08,18,12,05,26.80
2016,08,18,12,06,26.90
2016,08,18,12,07,27.00
2016,08,18,12,08,27.00
2016,08,18,12,09,27.10
2016,08,18,12,10,27.10
2016,08,18,12,11,27.10
2016,08,18,12,12,27.10
2016,08,18,12,13,27.10
2016,08,18,12,14,27.10
2016,08,18,12,15,27.20
2016,08,18,12,16,27.20
2016,08,18,12,17,27.30
2016,08,18,12,18,27.30
2016,08,18,12,19,27.30
2016,08,18,12,20,27.30
2016,08,18,12,21,27.30
2016,08,18,12,22,27.30
2016,08,18,12,23,27.40
2016,08,18,12,24,27.50
2016,08,18,12,25,27.60
2016,08,18,12,26,27.70
2016,08,18,12,27,27.80
2016,08,18,12,28,27.90
2016,08,18,12,29,27.90
2016,08,18,12,30,27.90
2016,08,18,12,31,28.00
2016,08,18,12,32,28.00
2016,08,18,12,33,28.00
2016,08,18,12,34,28.00
2016,08,18,12,35,28.00
2016,08,18,12,36,28.10
2016,08,18,12,37,28.10
2016,08,18,12,38,28.20
2016,08,18,12,39,28.20
2016,08,18,12,40,28.20
2016,08,18,12,41,28.20
2016,08,18,12,42,28.20
2016,08,18,12,43,28.20
2016,08,18,12,44,28.20
2016,08,18,12,45,28.20
2016,08,18,12,46,28.20
2016,08,18,12,47,28.20
2016,08,18,12,48,28.30
2016,08,18,12,49,28.30
2016,08,18,12,50,28.30
2016,08,18,12,51,28.30
2016,08,18,12,52,28.30
2016,08,18,12,53,28.30
2016,08,18,12,54,28.30
2016,08,18,12,55,28.30
2016,08,18,12,56,28.30
2016,08,18,12,57,28.30
2016,08,18,12,58,28.30
2016,08,18,12,59,28.30
2016,08,18,13,00,28.40
2016,08,18,13,01,28.50
2016,08,18,13,02,28.60
2016,08,18,13,03,28.70
2016,08,18,13,04,28.80
2016,08,18,13,05,28.80
2016,08,18,13,06,28.90
2016,08,18,13,07,28.90
2016,08,18,13,08,29.00
2016,08,18,13,09,29.10
2016,08,18,13,10,29.10
2016,08,18,13,11,29.00
2016,08,18,13,12,29.00
2016,08,18,13,13,29.00
2016,08,18,13,14,29.00
2016,08,18,13,15,28.90
2016,08,18,13,16,28.90
2016,08,18,13,17,28.80
2016,08,18,13,18,28.80
2016,08,18,13,19,28.70
2016,08,18,13,20,28.70
2016,08,18,13,21,28.80
2016,08,18,13,22,28.80
2016,08,18,13,23,28.90
2016,08,18,13,24,29.00
2016,08,18,13,25,29.10
2016,08,18,13,26,29.20
2016,08,18,13,27,29.20
2016,08,18,13,28,29.30
2016,08,18,13,29,29.40
2016,08,18,13,30,29.50
2016,08,18,13,31,29.60
2016,08,18,13,32,29.60
2016,08,18,13,33,29.60
2016,08,18,13,34,29.60
2016,08,18,13,35,29.60
2016,08,18,13,36,29.60
2016,08,18,13,37,29.50
2016,08,18,13,38,29.50
2016,08,18,13,39,29.40
2016,08,18,13,40,29.40
2016,08,18,13,41,29.30
2016,08,18,13,42,29.30
2016,08,18,13,43,29.30
2016,08,18,13,44,29.30
2016,08,18,13,45,29.40
2016,08,18,13,46,29.40
2016,08,18,13,47,29.30
2016,08,18,13,48,29.20
2016,08,18,13,49,29.20
2016,08,18,13,50,29.10
2016,08,18,13,51,29.10
2016,08,18,13,52,29.20
2016,08,18,13,53,29.30
2016,08,18,13,54,29.40
2016,08,18,13,55,29.50
2016,08,18,13,56,29.60
2016,08,18,13,57,29.70
2016,08,18,13,58,29.70
2016,08,18,13,59,29.80
2016,08,18,14,00,29.80
2016,08,18,14,01,29.80
2016,08,18,14,02,29.90
2016,08,18,14,03,30.00
2016,08,18,14,04,30.10
2016,08,18,14,05,30.10
2016,08,18,14,06,30.20
2016,08,18,14,07,30.20
2016,08,18,14,08,30.30
2016,08,18,14,09,30.30
2016,08,18,14,10,30.40
2016,08,18,14,11,30.50
2016,08,18,14,12,30.50
2016,08,18,14,13,30.50
2016,08,18,14,14,30.60
2016,08,18,14,15,30.60
2016,08,18,14,16,30.60
2016,08,18,14,17,30.60
2016,08,18,14,18,30.60
2016,08,18,14,19,30.60
2016,08,18,14,20,30.60
2016,08,18,14,21,30.60
2016,08,18,14,22,30.70
2016,08,18,14,23,30.80
2016,08,18,14,24,30.90
2016,08,18,14,25,30.80
2016,08,18,14,26,30.70
2016,08,18,14,27,30.40
2016,08,18,14,28,30.30
2016,08,18,14,29,30.20
2016,08,18,14,30,30.00
2016,08,18,14,31,29.90
2016,08,18,14,32,29.80
2016,08,18,14,33,29.60
2016,08,18,14,34,29.50
2016,08,18,14,35,29.40
2016,08,18,14,36,29.30
2016,08,18,14,37,29.20
2016,08,18,14,38,29.20
2016,08,18,14,39,29.20
2016,08,18,14,40,29.20
2016,08,18,14,41,29.20
2016,08,18,14,42,29.30
2016,08,18,14,43,29.30
2016,08,18,14,44,29.40
2016,08,18,14,45,29.50
2016,08,18,14,46,29.60
2016,08,18,14,47,29.70
2016,08,18,14,48,29.80
2016,08,18,14,49,29.90
2016,08,18,14,50,30.10
2016,08,18,14,51,30.20
2016,08,18,14,52,30.20
2016,08,18,14,53,30.30
2016,08,18,14,54,30.30
2016,08,18,14,55,30.40
2016,08,18,14,56,30.50
2016,08,18,14,57,30.60
2016,08,18,14,58,30.60
2016,08,18,14,59,30.60
2016,08,18,15,00,30.60
2016,08,18,15,01,30.60
2016,08,18,15,02,30.60
2016,08,18,15,03,30.70
2016,08,18,15,04,30.80
2016,08,18,15,05,30.90
2016,08,18,15,06,30.90
2016,08,18,15,07,30.90
2016,08,18,15,08,30.90
2016,08,18,15,09,30.80
2016,08,18,15,10,30.90
2016,08,18,15,11,30.80
2016,08,18,15,12,30.80
2016,08,18,15,13,30.90
2016,08,18,15,14,31.00
2016,08,18,15,15,31.10
2016,08,18,15,16,31.10
2016,08,18,15,17,31.20
2016,08,18,15,18,31.30
2016,08,18,15,19,31.40
2016,08,18,15,20,31.50
2016,08,18,15,21,31.60
2016,08,18,15,22,31.70
2016,08,18,15,23,31.80
2016,08,18,15,24,31.90
2016,08,18,15,25,31.90
2016,08,18,15,26,31.80
2016,08,18,15,27,31.70
2016,08,18,15,28,31.50
2016,08,18,15,29,31.40
2016,08,18,15,30,31.20
2016,08,18,15,31,31.10
2016,08,18,15,32,31.20
2016,08,18,15,33,31.20
2016,08,18,15,34,31.30
2016,08,18,15,35,31.40
2016,08,18,15,36,31.50
2016,08,18,15,37,31.50
2016,08,18,15,38,31.60
2016,08,18,15,39,31.50
2016,08,18,15,40,31.40
2016,08,18,15,41,31.30
2016,08,18,15,42,31.20
2016,08,18,15,43,31.10
2016,08,18,15,44,31.10
2016,08,18,15,45,31.10
2016,08,18,15,46,31.10
2016,08,18,15,47,31.10
2016,08,18,15,48,31.10
2016,08,18,15,49,31.10
2016,08,18,15,50,31.10
2016,08,18,15,51,31.10
2016,08,18,15,52,31.20
2016,08,18,15,53,31.30
2016,08,18,15,54,31.50
2016,08,18,15,55,31.60
2016,08,18,15,56,31.60
2016,08,18,15,57,31.60
2016,08,18,15,58,31.60
2016,08,18,15,59,31.60
2016,08,18,16,00,31.60
2016,08,18,16,01,31.60
2016,08,18,16,02,31.60
2016,08,18,16,03,31.60
2016,08,18,16,04,31.70
2016,08,18,16,05,31.70
2016,08,18,16,06,31.80
2016,08,18,16,07,31.90
2016,08,18,16,08,32.00
2016,08,18,16,09,32.00
2016,08,18,16,10,31.90
2016,08,18,16,11,31.90
2016,08,18,16,12,31.80
2016,08,18,16,13,31.80
2016,08,18,16,14,31.90
2016,08,18,16,15,32.00
2016,08,18,16,16,32.00
2016,08,18,16,17,32.00
2016,08,18,16,18,32.10
2016,08,18,16,19,32.10
2016,08,18,16,20,32.10
2016,08,18,16,21,32.20
2016,08,18,16,22,32.30
2016,08,18,16,23,32.30
2016,08,18,16,24,32.40
2016,08,18,16,25,32.40
2016,08,18,16,26,32.50
2016,08,18,16,27,32.60
2016,08,18,16,28,32.70
2016,08,18,16,29,32.80
2016,08,18,16,30,32.90
2016,08,18,16,31,33.00
2016,08,18,16,32,33.10
2016,08,18,16,33,33.20
2016,08,18,16,34,33.20
2016,08,18,16,35,33.20
2016,08,18,16,36,33.20
2016,08,18,16,37,33.30
2016,08,18,16,38,33.30
2016,08,18,16,39,33.40
2016,08,18,16,40,33.50
2016,08,18,16,41,33.50
2016,08,18,16,42,33.60
2016,08,18,16,43,33.60
2016,08,18,16,44,33.50
2016,08,18,16,45,33.40
2016,08,18,16,46,33.40
2016,08,18,16,47,33.30
2016,08,18,16,48,33.20
2016,08,18,16,49,33.10
2016,08,18,16,50,33.00
2016,08,18,16,51,33.00
2016,08,18,16,52,33.10
2016,08,18,16,53,33.10
2016,08,18,16,54,33.20
2016,08,18,16,55,33.20
2016,08,18,16,56,33.30
2016,08,18,16,57,33.30
2016,08,18,16,58,33.30
2016,08,18,16,59,33.30
2016,08,18,17,00,33.40
2016,08,18,17,01,33.40
2016,08,18,17,02,33.40
2016,08,18,17,03,33.40
2016,08,18,17,04,33.50
2016,08,18,17,05,33.60
2016,08,18,17,06,33.70
2016,08,18,17,07,33.70
2016,08,18,17,08,33.70
2016,08,18,17,09,33.70
2016,08,18,17,10,33.80
2016,08,18,17,11,33.80
2016,08,18,17,12,33.90
2016,08,18,17,13,33.90
2016,08,18,17,14,33.90
2016,08,18,17,15,33.90
2016,08,18,17,16,33.80
2016,08,18,17,17,33.70
2016,08,18,17,18,33.70
2016,08,18,17,19,33.70